N655CJ MDJB-TJSJ

Flight info

Callsign N655CJ
Flight time 0h 39m
Altitude 20000
Route DHG DCT OLITA UL577 CDO DCT MELLA DCT MAZ DCT JOSHE DCT SJU
Aircraft C750/M-SBDE3FGHRWXY/S

Departure

Time 2026-04-28 18:54
Airport La Isabela International Airport (MDJB)

Arrival

Time 2026-04-28 19:33
Airport Luis Munoz Marin International Airport (TJSJ)
Time Latitude Longitude Altitude Speed Heading
2026-04-28 18:28 18.57587 -69.98278 83 ft 0 kts 96°
2026-04-28 18:42 18.57588 -69.98285 83 ft 2 kts 96°
2026-04-28 18:42 18.57590 -69.98304 83 ft 3 kts 96°
2026-04-28 18:42 18.57591 -69.98313 83 ft 0 kts 96°
2026-04-28 18:45 18.57591 -69.98312 83 ft 0 kts 96°
2026-04-28 18:46 18.57593 -69.98302 83 ft 3 kts 52°
2026-04-28 18:46 18.57621 -69.98300 83 ft 6 kts 355°
2026-04-28 18:47 18.57655 -69.98299 83 ft 5 kts
2026-04-28 18:47 18.57682 -69.98323 83 ft 7 kts 280°
2026-04-28 18:47 18.57712 -69.98337 83 ft 6 kts
2026-04-28 18:47 18.57766 -69.98330 83 ft 9 kts
2026-04-28 18:48 18.57829 -69.98323 83 ft 8 kts
2026-04-28 18:48 18.57891 -69.98317 83 ft 10 kts
2026-04-28 18:48 18.57950 -69.98355 83 ft 10 kts 287°
2026-04-28 18:48 18.57955 -69.98395 83 ft 0 kts 274°
2026-04-28 18:49 18.57955 -69.98396 83 ft 0 kts 274°
2026-04-28 18:51 18.57956 -69.98406 83 ft 3 kts 274°
2026-04-28 18:52 18.57958 -69.98440 83 ft 6 kts 274°
2026-04-28 18:52 18.57944 -69.98479 83 ft 7 kts 195°
2026-04-28 18:52 18.57938 -69.98480 83 ft 0 kts 188°
2026-04-28 18:53 18.57938 -69.98481 83 ft 0 kts 188°
2026-04-28 18:53 18.57920 -69.98483 83 ft 19 kts 188°
2026-04-28 18:53 18.57474 -69.98535 83 ft 113 kts 186°
2026-04-28 18:54 18.56388 -69.98668 367 ft 192 kts 186°
2026-04-28 18:54 18.54877 -69.98879 1500 ft 242 kts 187°
2026-04-28 18:54 18.53319 -69.98926 2704 ft 212 kts 176°
2026-04-28 18:54 18.51835 -69.98565 2993 ft 225 kts 161°
2026-04-28 18:55 18.50340 -69.97981 3372 ft 233 kts 159°
2026-04-28 18:55 18.49331 -69.97581 3705 ft 234 kts 159°
2026-04-28 18:55 18.47282 -69.96777 4565 ft 236 kts 159°
2026-04-28 18:55 18.45735 -69.96173 5275 ft 238 kts 160°
2026-04-28 18:56 18.44196 -69.95576 5988 ft 240 kts 159°
2026-04-28 18:56 18.42614 -69.94967 6703 ft 242 kts 159°
2026-04-28 18:56 18.41024 -69.94354 7307 ft 248 kts 159°
2026-04-28 18:56 18.39603 -69.93334 7766 ft 245 kts 130°
2026-04-28 18:57 18.38689 -69.91860 8417 ft 239 kts 119°
2026-04-28 18:57 18.37963 -69.90278 9071 ft 242 kts 114°
2026-04-28 18:57 18.37578 -69.88549 9722 ft 245 kts 94°
2026-04-28 18:57 18.37665 -69.86730 10040 ft 259 kts 84°
2026-04-28 18:58 18.37958 -69.84885 10491 ft 253 kts 81°
2026-04-28 18:58 18.38290 -69.83072 10859 ft 255 kts 80°
2026-04-28 18:58 18.38655 -69.81130 10981 ft 296 kts 80°
2026-04-28 18:58 18.39094 -69.78770 11018 ft 352 kts 80°
2026-04-28 18:59 18.39575 -69.76176 11010 ft 366 kts 80°
2026-04-28 18:59 18.40072 -69.73491 11006 ft 379 kts 80°
2026-04-28 18:59 18.40583 -69.70725 11005 ft 389 kts 80°
2026-04-28 18:59 18.41098 -69.67943 11266 ft 384 kts 80°
2026-04-28 19:00 18.41582 -69.65201 11572 ft 376 kts 83°
2026-04-28 19:00 18.41782 -69.62513 12242 ft 362 kts 89°
2026-04-28 19:00 18.41772 -69.59895 12938 ft 359 kts 93°
2026-04-28 19:00 18.41636 -69.57248 13649 ft 360 kts 95°
2026-04-28 19:01 18.41425 -69.54620 14350 ft 361 kts 97°
2026-04-28 19:01 18.41165 -69.51992 15050 ft 361 kts 98°
2026-04-28 19:01 18.40877 -69.49397 15740 ft 361 kts 98°
2026-04-28 19:01 18.40564 -69.46767 16439 ft 362 kts 99°
2026-04-28 19:02 18.40237 -69.44133 17138 ft 363 kts 99°
2026-04-28 19:02 18.39896 -69.41477 17841 ft 365 kts 99°
2026-04-28 19:02 18.39549 -69.38824 18540 ft 366 kts 99°
2026-04-28 19:02 18.39195 -69.36161 19240 ft 368 kts 99°
2026-04-28 19:03 18.38836 -69.33481 19916 ft 371 kts 99°
2026-04-28 19:03 18.38465 -69.30745 20070 ft 383 kts 99°
2026-04-28 19:03 18.38084 -69.27957 20079 ft 395 kts 99°
2026-04-28 19:03 18.37685 -69.25050 20075 ft 407 kts 99°
2026-04-28 19:04 18.37273 -69.22061 20072 ft 414 kts 99°
2026-04-28 19:04 18.36858 -69.19049 20071 ft 419 kts 99°
2026-04-28 19:04 18.36436 -69.15993 20068 ft 422 kts 99°
2026-04-28 19:04 18.36011 -69.12915 20070 ft 429 kts 99°
2026-04-28 19:05 18.35574 -69.09765 20077 ft 439 kts 99°
2026-04-28 19:05 18.35127 -69.06549 20081 ft 449 kts 99°
2026-04-28 19:05 18.34675 -69.03302 20082 ft 459 kts 99°
2026-04-28 19:05 18.34206 -68.99944 20082 ft 465 kts 99°
2026-04-28 19:06 18.33734 -68.96557 20082 ft 469 kts 99°
2026-04-28 19:06 18.33419 -68.94306 20081 ft 471 kts 99°
2026-04-28 19:06 18.32783 -68.89748 20080 ft 473 kts 99°
2026-04-28 19:06 18.32297 -68.86273 20081 ft 475 kts 99°
2026-04-28 19:07 18.31821 -68.82876 20081 ft 476 kts 99°
2026-04-28 19:07 18.31337 -68.79420 20079 ft 476 kts 99°
2026-04-28 19:07 18.30851 -68.75963 20080 ft 476 kts 99°
2026-04-28 19:07 18.30364 -68.72495 20080 ft 477 kts 99°
2026-04-28 19:08 18.29879 -68.69053 20081 ft 477 kts 99°
2026-04-28 19:08 18.29391 -68.65592 20080 ft 477 kts 99°
2026-04-28 19:08 18.28904 -68.62145 20080 ft 477 kts 99°
2026-04-28 19:08 18.28421 -68.58734 20080 ft 477 kts 99°
2026-04-28 19:09 18.27931 -68.55280 20080 ft 477 kts 99°
2026-04-28 19:09 18.27441 -68.51828 20080 ft 477 kts 99°
2026-04-28 19:09 18.26950 -68.48372 20080 ft 477 kts 99°
2026-04-28 19:09 18.26458 -68.44915 20080 ft 477 kts 99°
2026-04-28 19:10 18.25965 -68.41462 20080 ft 477 kts 99°
2026-04-28 19:10 18.25472 -68.38010 20080 ft 477 kts 99°
2026-04-28 19:10 18.24979 -68.34558 20080 ft 477 kts 99°
2026-04-28 19:10 18.24484 -68.31100 20080 ft 477 kts 99°
2026-04-28 19:11 18.23989 -68.27648 20080 ft 477 kts 100°
2026-04-28 19:11 18.23499 -68.24237 20080 ft 477 kts 100°
2026-04-28 19:11 18.22997 -68.20743 20080 ft 477 kts 100°
2026-04-28 19:11 18.22506 -68.17331 20080 ft 477 kts 100°
2026-04-28 19:12 18.22007 -68.13875 20079 ft 477 kts 100°
2026-04-28 19:12 18.21510 -68.10427 20079 ft 477 kts 100°
2026-04-28 19:12 18.21008 -68.06957 20079 ft 477 kts 100°
2026-04-28 19:12 18.20521 -68.03500 20079 ft 477 kts 98°
2026-04-28 19:13 18.20253 -68.00059 20080 ft 478 kts 94°
2026-04-28 19:13 18.20196 -67.96564 20080 ft 479 kts 90°
2026-04-28 19:13 18.20278 -67.93058 20082 ft 479 kts 88°
2026-04-28 19:13 18.20447 -67.89555 20084 ft 479 kts 87°
2026-04-28 19:14 18.20669 -67.86050 20081 ft 479 kts 86°
2026-04-28 19:14 18.20920 -67.82555 20079 ft 479 kts 86°
2026-04-28 19:14 18.21187 -67.79052 20079 ft 479 kts 86°
2026-04-28 19:14 18.21456 -67.75606 20079 ft 479 kts 86°
2026-04-28 19:15 18.21728 -67.72112 20078 ft 479 kts 86°
2026-04-28 19:15 18.21998 -67.68614 20076 ft 479 kts 86°
2026-04-28 19:15 18.22264 -67.65109 20076 ft 479 kts 86°
2026-04-28 19:15 18.22438 -67.62784 20076 ft 479 kts 86°
2026-04-28 19:16 18.22777 -67.58145 20076 ft 479 kts 86°
2026-04-28 19:16 18.23027 -67.54649 20075 ft 479 kts 86°
2026-04-28 19:16 18.23273 -67.51147 20072 ft 479 kts 86°
2026-04-28 19:16 18.23514 -67.47647 20062 ft 479 kts 86°
2026-04-28 19:17 18.23753 -67.44137 20053 ft 478 kts 86°
2026-04-28 19:17 18.23984 -67.40698 20051 ft 478 kts 86°
2026-04-28 19:17 18.24217 -67.37196 20050 ft 478 kts 86°
2026-04-28 19:17 18.24447 -67.33704 20050 ft 478 kts 86°
2026-04-28 19:18 18.24676 -67.30211 20050 ft 478 kts 86°
2026-04-28 19:18 18.24903 -67.26719 20051 ft 477 kts 86°
2026-04-28 19:18 18.25128 -67.23233 20051 ft 477 kts 86°
2026-04-28 19:18 18.25348 -67.19796 20046 ft 477 kts 86°
2026-04-28 19:19 18.25511 -67.16344 19826 ft 465 kts 89°
2026-04-28 19:19 18.25578 -67.12986 19537 ft 453 kts 90°
2026-04-28 19:19 18.25584 -67.09709 19233 ft 443 kts 91°
2026-04-28 19:19 18.25553 -67.06475 18655 ft 440 kts 91°
2026-04-28 19:20 18.25498 -67.03253 17977 ft 440 kts 92°
2026-04-28 19:20 18.25429 -67.00030 17278 ft 440 kts 92°
2026-04-28 19:20 18.25352 -66.96810 16578 ft 439 kts 92°
2026-04-28 19:20 18.25273 -66.93638 15886 ft 438 kts 92°
2026-04-28 19:21 18.25192 -66.90431 15185 ft 437 kts 92°
2026-04-28 19:21 18.25112 -66.87239 14484 ft 435 kts 92°
2026-04-28 19:21 18.25034 -66.84079 13786 ft 433 kts 92°
2026-04-28 19:21 18.24957 -66.80920 13088 ft 427 kts 92°
2026-04-28 19:22 18.24884 -66.77840 12391 ft 415 kts 92°
2026-04-28 19:22 18.24861 -66.76855 12162 ft 412 kts 92°
2026-04-28 19:22 18.24748 -66.71932 10996 ft 398 kts 92°
2026-04-28 19:22 18.24681 -66.69037 10293 ft 391 kts 92°
2026-04-28 19:23 18.24638 -66.67157 9830 ft 387 kts 92°
2026-04-28 19:23 18.24573 -66.64348 9129 ft 380 kts 92°
2026-04-28 19:23 18.24509 -66.61584 8427 ft 374 kts 92°
2026-04-28 19:23 18.24424 -66.57991 7498 ft 367 kts 92°
2026-04-28 19:24 18.24381 -66.56212 7084 ft 363 kts 92°
2026-04-28 19:24 18.24372 -66.53608 7034 ft 342 kts 87°
2026-04-28 19:24 18.24696 -66.51203 7032 ft 324 kts 79°
2026-04-28 19:24 18.25235 -66.48963 7031 ft 308 kts 75°
2026-04-28 19:25 18.25873 -66.46862 7030 ft 295 kts 72°
2026-04-28 19:25 18.26541 -66.44898 7028 ft 281 kts 71°
2026-04-28 19:25 18.27219 -66.43024 7032 ft 267 kts 70°
2026-04-28 19:25 18.27897 -66.41209 6769 ft 271 kts 69°
2026-04-28 19:26 18.28611 -66.39335 6257 ft 276 kts 69°
2026-04-28 19:26 18.29327 -66.37490 5816 ft 270 kts 69°
2026-04-28 19:26 18.30037 -66.35677 5246 ft 270 kts 68°
2026-04-28 19:26 18.30749 -66.33870 4669 ft 264 kts 68°
2026-04-28 19:27 18.31453 -66.32093 4091 ft 260 kts 68°
2026-04-28 19:27 18.32151 -66.30334 3519 ft 263 kts 68°
2026-04-28 19:27 18.32867 -66.28530 2946 ft 271 kts 68°
2026-04-28 19:27 18.33452 -66.27061 2491 ft 276 kts 68°
2026-04-28 19:28 18.33833 -66.26103 2211 ft 278 kts 68°
2026-04-28 19:28 18.34569 -66.24256 2089 ft 267 kts 68°
2026-04-28 19:28 18.34909 -66.23406 2071 ft 261 kts 68°
2026-04-28 19:28 18.35529 -66.21852 2059 ft 250 kts 68°
2026-04-28 19:29 18.36227 -66.20219 2054 ft 239 kts 62°
2026-04-28 19:29 18.36834 -66.19241 2059 ft 232 kts 56°
2026-04-28 19:29 18.38046 -66.17457 2056 ft 221 kts 57°
2026-04-28 19:29 18.38830 -66.16105 2056 ft 212 kts 63°
2026-04-28 19:30 18.39471 -66.14746 2053 ft 199 kts 68°
2026-04-28 19:30 18.39975 -66.13447 2049 ft 185 kts 71°
2026-04-28 19:30 18.40387 -66.12216 2048 ft 173 kts 73°
2026-04-28 19:30 18.40743 -66.11039 2051 ft 165 kts 75°
2026-04-28 19:31 18.40992 -66.10181 2054 ft 161 kts 75°
2026-04-28 19:31 18.41136 -66.09687 1969 ft 167 kts 73°
2026-04-28 19:31 18.41617 -66.08513 1672 ft 179 kts 65°
2026-04-28 19:31 18.42281 -66.07387 1318 ft 183 kts 56°
2026-04-28 19:32 18.43055 -66.06342 994 ft 182 kts 57°
2026-04-28 19:32 18.43515 -66.05207 887 ft 162 kts 90°
2026-04-28 19:32 18.43405 -66.04007 521 ft 165 kts 99°
2026-04-28 19:32 18.43362 -66.02805 312 ft 161 kts 93°
2026-04-28 19:33 18.43371 -66.01628 91 ft 159 kts 95°
2026-04-28 19:33 18.43355 -66.00492 14 ft 149 kts 94°
2026-04-28 19:33 18.43346 -65.99596 13 ft 60 kts 87°
2026-04-28 19:33 18.43349 -65.99510 13 ft 0 kts 88°
2026-04-28 19:34 18.43349 -65.99502 13 ft 4 kts 88°
2026-04-28 19:34 18.43351 -65.99447 13 ft 10 kts 89°
2026-04-28 19:34 18.43353 -65.99348 13 ft 17 kts 89°
2026-04-28 19:34 18.43355 -65.99197 13 ft 20 kts 89°
2026-04-28 19:35 18.43372 -65.99090 13 ft 13 kts 44°
2026-04-28 19:35 18.43417 -65.99074 13 ft 0 kts
2026-04-28 19:36 18.43428 -65.99074 13 ft 4 kts
2026-04-28 19:36 18.43468 -65.99075 13 ft 8 kts 347°
2026-04-28 19:36 18.43491 -65.99111 13 ft 7 kts 270°
2026-04-28 19:37 18.43491 -65.99182 13 ft 12 kts 270°
2026-04-28 19:37 18.43491 -65.99249 13 ft 15 kts 270°
2026-04-28 19:37 18.43492 -65.99412 13 ft 20 kts 270°
2026-04-28 19:37 18.43492 -65.99518 13 ft 8 kts 268°
2026-04-28 19:38 18.43491 -65.99581 13 ft 9 kts 270°
2026-04-28 19:38 18.43492 -65.99651 13 ft 11 kts 270°
2026-04-28 19:38 18.43492 -65.99729 13 ft 10 kts 270°
2026-04-28 19:38 18.43493 -65.99819 13 ft 15 kts 270°
2026-04-28 19:39 18.43494 -65.99929 13 ft 15 kts 268°
2026-04-28 19:39 18.43495 -66.00028 13 ft 14 kts 298°
2026-04-28 19:39 18.43568 -66.00047 13 ft 9 kts 359°
2026-04-28 19:39 18.43603 -66.00088 13 ft 10 kts 272°
2026-04-28 19:40 18.43609 -66.00166 13 ft 10 kts 310°
2026-04-28 19:40 18.43662 -66.00189 13 ft 10 kts 341°
2026-04-28 19:40 18.43738 -66.00218 13 ft 11 kts 339°
2026-04-28 19:40 18.43818 -66.00251 13 ft 15 kts 340°
2026-04-28 19:41 18.43870 -66.00210 13 ft 7 kts 70°
2026-04-28 19:41 18.43872 -66.00168 13 ft 4 kts 38°
2026-04-28 19:41 18.43884 -66.00167 13 ft 0 kts 341°
2026-04-28 19:41 18.43885 -66.00168 13 ft 0 kts 338°